This demonstration page uses our WeatherBlox Daily Observations layout. Learn more.

Left ArrowRight Arrow

Hourly Observations for September 5, 2018

Temp ( °F °C ) Dew Point ( °F °C ) Humidity (%) Winds ( mph kmh ) Pressure ( in mb ) Visibility ( mi km ) Precip ( " mm )
12:08 am 00:08 Cloudy 75 23.9 70 21.1 84 84 W 10 17 29.94 1014 10 16 N/A
12:17 am 00:17 Cloudy 74 23.3 69 20.6 85 85 W 8 13 29.97 1015 10 16 N/A
12:25 am 00:25 Cloudy 74 23.3 69 20.6 85 85 W 7 11 29.97 1015 10 16 N/A
12:54 am 00:54 Cloudy with Light Rain 73 22.8 68 20 84 84 WNW 7 11 29.99 1016 7 11 0.02 0.51
1:54 am 01:54 Cloudy with Light Rain 71 21.7 68 20 90 90 WNW 5 7 30.00 1016 5 8 0.03 0.76
2:31 am 02:31 Cloudy with Light Rain 70 21.1 68 20 93 93 NW 7 11 30.00 1016 9 14 0.02 0.51
2:45 am 02:45 Cloudy with Light Rain 70 21.1 68 20 93 93 NNW 7 11 30.00 1016 6 10 0.04 1.02
2:54 am 02:54 Mostly Cloudy with Light Rain 70 21.1 68 20 93 93 NNW 6 9 30.00 1016 7 11 0.04 1.02
3:38 am 03:38 Cloudy with Light Rain 70 21.1 68 20 93 93 N 5 7 29.97 1015 10 16 0.01 0.25
3:54 am 03:54 Cloudy with Light Rain 70 21.1 68 20 93 93 NNW 7 11 29.98 1015 10 16 0.01 0.25
4:03 am 04:03 Cloudy with Light Rain 70 21.1 68 20 93 93 N 7 11 29.97 1015 10 16 N/A
4:19 am 04:19 Cloudy 70 21.1 68 20 93 93 N 7 11 29.97 1015 10 16 N/A
4:54 am 04:54 Cloudy 70 21.1 68 20 93 93 N 8 13 29.98 1015 10 16 N/A
5:54 am 05:54 Cloudy 69 20.6 67 19.4 93 93 N 8 13 30.01 1016 10 16 N/A
6:28 am 06:28 Cloudy with Mist and Fog 69 20.6 67 19.4 93 93 N 13 20 30.03 1017 6 10 N/A
6:41 am 06:41 Cloudy 69 20.6 67 19.4 93 93 N 9 15 30.03 1017 10 16 N/A
6:54 am 06:54 Cloudy 69 20.6 67 19.4 93 93 N 10 17 30.05 1018 10 16 N/A
7:54 am 07:54 Cloudy 68 20 66 18.9 93 93 N 10 17 30.07 1018 9 14 N/A
8:54 am 08:54 Cloudy 68 20 66 18.9 93 93 N 14 22 30.07 1018 7 11 N/A
9:54 am 09:54 Cloudy 69 20.6 65 18.3 87 87 NNE 12 19 30.09 1019 10 16 N/A
10:54 am 10:54 Cloudy 70 21.1 66 18.9 87 87 NNE 15 24 30.11 1020 10 16 N/A
11:54 am 11:54 Cloudy 71 21.7 66 18.9 84 84 NE 18 30 30.13 1020 10 16 N/A
12:01 pm 12:01 Cloudy 71 21.7 66 18.9 84 84 NE 13 20 30.12 1020 10 16 N/A
12:54 pm 12:54 Cloudy 72 22.2 66 18.9 82 82 NNE 17 28 30.14 1021 10 16 N/A
1:02 pm 13:02 Cloudy 72 22.2 66 18.9 82 82 NNE 16 26 30.15 1021 10 16 N/A
1:54 pm 13:54 Cloudy 73 22.8 66 18.9 79 79 NNE 14 22 30.14 1021 10 16 N/A
2:45 pm 14:45 Cloudy 77 25 67 19.4 71 71 NE 15 24 30.09 1019 10 16 N/A
2:54 pm 14:54 Cloudy 77 25 67 19.4 71 71 NE 16 26 30.12 1020 10 16 N/A
3:54 pm 15:54 Cloudy 77 25 66 18.9 69 69 NE 15 24 30.13 1020 10 16 N/A
4:54 pm 16:54 Mostly Cloudy 77 25 66 18.9 69 69 NNE 18 30 30.14 1021 10 16 N/A
5:54 pm 17:54 Mostly Cloudy 76 24.4 66 18.9 72 72 NNE 15 24 30.15 1021 10 16 N/A
6:54 pm 18:54 Cloudy 74 23.3 66 18.9 76 76 NNE 14 22 30.17 1022 10 16 N/A
7:54 pm 19:54 Mostly Clear 71 21.7 66 18.9 84 84 N 13 20 30.19 1022 10 16 N/A
8:54 pm 20:54 Clear 70 21.1 66 18.9 87 87 N 13 20 30.22 1023 10 16 N/A
9:54 pm 21:54 Clear 69 20.6 65 18.3 87 87 NNE 13 20 30.24 1024 10 16 N/A
10:54 pm 22:54 Mostly Cloudy 68 20 65 18.3 90 90 NNE 8 13 30.25 1024 10 16 N/A
11:25 pm 23:25 Mostly Cloudy 67 19.4 65 18.3 93 93 N 7 11 30.24 1024 10 16 N/A
11:54 pm 23:54 Cloudy 68 20 64 17.8 87 87 NNE 12 19 30.25 1025 10 16 N/A

Powered by AerisWeather